Location: Navalmoral
(40.4603°N, 4.7686°W)
Time: 09:39:48
(UTC+00:00)

NOSS 3-4 (C) - Pass Details

Date: 05 August 2024
Orbit: 802 x 1409 km, 63.4° (Epoch: 13 September)

Event Time Altitude Azimuth Distance (km) Brightness Sun altitude
Exits shadow 23:04:50 70° 328° (NNW) 885 3.3 -29.9°
Drops below altitude 10° 23:10:24 10° 31° (NNE) 2,567 6.1 -30.3°
Sets 23:13:04 0° 34° (NNE) 3,586 6.9 -30.5°
